Location: Utrecht
(52.0917°N, 5.1178°E)
Time: 08:51:10
(UTC+02:00)

Envisat - Visible Passes

Search period start: 25 May 2017 00:00
Search period end: 04 June 2017 00:00
Orbit: 764 x 766 km, 98.2° (Epoch: 24 May)

Date Brightness Start Highest point End Pass type
(mag) Time Alt. Az. Time Alt. Az. Time Alt. Az.
25 May 4.5 22:19:38 10° SSW 22:24:15 35° W 22:28:55 10° NNW visible
26 May 5.8 23:25:56 10° W 23:27:23 11° W 23:28:50 10° WNW visible
27 May 5.2 22:46:13 10° SW 22:50:08 22° W 22:54:04 10° NW visible
29 May 5.6 23:13:33 10° WSW 23:16:07 14° W 23:18:42 10° NW visible
30 May 5.0 22:34:40 10° SSW 22:38:56 27° W 22:43:13 10° NW visible
01 Jun 5.5 23:01:37 10° SW 23:04:53 17° W 23:08:09 10° NW visible
03 Jun 6.0 23:30:35 10° W 23:30:55 10° W 23:31:16 10° WNW visible
